TimePST,TemperatureF,Dew PointF,Humidity,Sea Level PressureIn,VisibilityMPH,Wind Direction,Wind SpeedMPH,Gust SpeedMPH,PrecipitationIn,Events,Conditions,WindDirDegrees,DateUTC
12:56 AM,46.9,41.0,80,30.22,10.0,Calm,Calm,-,N/A,,Clear,0,2012-11-22 08:56:00
1:56 AM,48.0,43.0,83,30.23,10.0,Calm,Calm,-,N/A,,Clear,0,2012-11-22 09:56:00
2:56 AM,46.9,41.0,80,30.23,10.0,Calm,Calm,-,N/A,,Clear,0,2012-11-22 10:56:00
3:56 AM,45.0,41.0,86,30.23,10.0,Calm,Calm,-,N/A,,Clear,0,2012-11-22 11:56:00
4:56 AM,46.0,42.1,86,30.22,10.0,Calm,Calm,-,N/A,,Clear,0,2012-11-22 12:56:00
5:17 AM,44.6,42.8,93,30.21,10.0,Calm,Calm,-,N/A,,Mostly Cloudy,0,2012-11-22 13:17:00
5:34 AM,44.6,41.0,87,30.21,10.0,ESE,3.5,-,N/A,,Scattered Clouds,110,2012-11-22 13:34:00
5:56 AM,44.1,41.0,89,30.23,10.0,ESE,3.5,-,N/A,,Clear,110,2012-11-22 13:56:00
6:56 AM,45.0,42.1,90,30.24,10.0,Calm,Calm,-,N/A,,Clear,0,2012-11-22 14:56:00
7:56 AM,48.0,45.0,89,30.27,10.0,Calm,Calm,-,N/A,,Clear,0,2012-11-22 15:56:00
8:56 AM,53.1,46.0,77,30.28,10.0,Calm,Calm,-,N/A,,Clear,0,2012-11-22 16:56:00
9:56 AM,57.0,46.9,69,30.28,10.0,NNW,3.5,-,N/A,,Clear,330,2012-11-22 17:56:00
10:56 AM,59.0,44.1,58,30.27,10.0,NW,3.5,-,N/A,,Clear,320,2012-11-22 18:56:00
11:56 AM,63.0,43.0,48,30.24,10.0,NW,6.9,-,N/A,,Clear,320,2012-11-22 19:56:00
12:56 PM,64.0,44.1,48,30.22,10.0,NNW,9.2,-,N/A,,Clear,340,2012-11-22 20:56:00
1:56 PM,64.9,44.1,47,30.21,10.0,Variable,5.8,-,N/A,,Clear,0,2012-11-22 21:56:00
2:56 PM,64.0,46.0,52,30.19,10.0,NNW,8.1,-,N/A,,Clear,330,2012-11-22 22:56:00
3:56 PM,62.1,46.0,56,30.20,10.0,NW,6.9,-,N/A,,Clear,320,2012-11-22 23:56:00
4:56 PM,60.1,45.0,57,30.20,10.0,NW,6.9,-,N/A,,Clear,320,2012-11-23 00:56:00
5:56 PM,59.0,44.1,58,30.21,10.0,WNW,3.5,-,N/A,,Clear,290,2012-11-23 01:56:00
6:56 PM,55.9,44.1,64,30.22,10.0,West,3.5,-,N/A,,Clear,260,2012-11-23 02:56:00
7:56 PM,53.1,44.1,71,30.23,10.0,Calm,Calm,-,N/A,,Clear,0,2012-11-23 03:56:00
8:56 PM,53.1,45.0,74,30.24,10.0,Calm,Calm,-,N/A,,Clear,0,2012-11-23 04:56:00
9:56 PM,52.0,45.0,77,30.25,10.0,Calm,Calm,-,N/A,,Clear,0,2012-11-23 05:56:00
10:56 PM,48.9,44.1,83,30.25,10.0,Calm,Calm,-,N/A,,Clear,0,2012-11-23 06:56:00
11:56 PM,48.0,43.0,83,30.25,10.0,Calm,Calm,-,N/A,,Clear,0,2012-11-23 07:56:00